This demonstration page uses our WeatherBlox Daily Observations layout. Learn more.

Left ArrowRight Arrow

Hourly Observations for February 1, 2021

Temp ( °F °C ) Dew Point ( °F °C ) Humidity (%) Winds ( mph kmh ) Pressure ( in mb ) Visibility ( mi km ) Precip ( " mm )
12:15 am 00:15 Clear 29 -1.5 26 -3.3 88 88 W 5 7 30.47 1032 10 16 N/A
12:35 am 00:35 Clear 29 -1.8 25 -3.8 86 86 W 6 9 30.47 1032 10 16 N/A
12:55 am 00:55 Clear 28 -2.5 25 -4.1 89 89 W 7 11 30.48 1032 10 16 N/A
1:15 am 01:15 Clear 28 -2.3 25 -4.1 88 88 W 5 7 30.48 1032 10 16 N/A
1:35 am 01:35 Clear 28 -2.1 25 -3.7 89 89 W 8 13 30.47 1032 10 16 N/A
1:55 am 01:55 Clear 26 -3.4 22 -5.3 87 87 W 3 6 30.48 1032 10 16 N/A
2:15 am 02:15 Clear 24 -4.6 21 -6 90 90 W 6 9 30.49 1033 10 16 N/A
2:35 am 02:35 Clear 24 -4.3 22 -5.6 91 91 W 5 7 30.49 1032 10 16 N/A
2:55 am 02:55 Clear 23 -5.2 20 -6.5 91 91 W 3 6 30.50 1033 10 16 N/A
3:15 am 03:15 Clear 22 -5.6 20 -6.7 92 92 W 3 6 30.50 1033 10 16 N/A
3:35 am 03:35 Clear 24 -4.7 22 -5.7 93 93 W 5 7 30.48 1032 10 16 N/A
3:55 am 03:55 Clear 19 -7.2 17 -8.3 92 92 N N/A 30.51 1033 10 16 N/A
4:15 am 04:15 Clear 20 -6.9 18 -7.7 94 94 N N/A 30.50 1033 10 16 N/A
4:35 am 04:35 Clear 18 -7.6 17 -8.5 93 93 N N/A 30.51 1033 10 16 N/A
4:55 am 04:55 Clear 21 -5.9 20 -6.7 94 94 W 6 9 30.49 1033 10 16 N/A
5:15 am 05:15 Clear 21 -6 20 -6.7 95 95 W 3 6 30.50 1033 10 16 N/A
5:35 am 05:35 Clear 21 -6.1 20 -6.9 94 94 N N/A 30.49 1032 10 16 N/A
5:55 am 05:55 Clear with Mist and Fog 20 -6.9 18 -7.8 93 93 N N/A 30.49 1033 5 8 N/A
6:15 am 06:15 Clear 18 -7.7 16 -8.7 93 93 N N/A 30.50 1033 7 11 N/A
6:35 am 06:35 Clear 19 -7.4 17 -8.2 94 94 N N/A 30.50 1033 7 11 N/A
6:55 am 06:55 Mostly Cloudy with Freezing Fog 16 -9 14 -10 93 93 N N/A 30.53 1034 1 1 N/A
7:15 am 07:15 Partly Cloudy 15 -9.4 13 -10.5 92 92 N N/A 30.53 1034 10 16 N/A
7:35 am 07:35 Clear 16 -9 14 -10 93 93 N N/A 30.53 1034 10 16 N/A
7:55 am 07:55 Sunny 17 -8.6 15 -9.7 92 92 N N/A 30.51 1033 10 16 N/A
8:15 am 08:15 Partly Cloudy with Mist and Fog 16 -8.8 14 -9.9 92 92 E 6 9 30.50 1033 1 2 N/A
8:35 am 08:35 Partly Cloudy 19 -7.1 18 -7.9 94 94 E 3 6 30.49 1032 7 11 N/A
8:55 am 08:55 Sunny with Mist and Fog 21 -6.3 19 -7.2 93 93 N N/A 30.48 1032 5 8 N/A
9:15 am 09:15 Sunny 22 -5.7 20 -6.6 93 93 SE 3 6 30.47 1032 10 16 N/A
9:35 am 09:35 Sunny 21 -6 20 -6.9 93 93 SE 5 7 30.49 1032 10 16 N/A
9:55 am 09:55 Sunny 23 -5 22 -5.8 94 94 ESE 7 11 30.47 1032 10 16 N/A
10:15 am 10:15 Sunny 25 -3.7 24 -4.4 95 95 SE 6 9 30.46 1032 10 16 N/A
10:35 am 10:35 Sunny 27 -2.9 26 -3.5 96 96 SSE 3 6 30.45 1031 10 16 N/A
10:55 am 10:55 Sunny 28 -2 27 -2.6 96 96 SSE 3 6 30.44 1031 10 16 N/A
11:15 am 11:15 Sunny 31 -0.6 29 -1.6 93 93 SSE 6 9 30.43 1031 10 16 N/A
11:35 am 11:35 Sunny 32 0.2 28 -2 85 85 SSE 6 9 30.41 1030 10 16 N/A
11:55 am 11:55 Sunny 34 1 28 -2 81 81 SSE 7 11 30.40 1029 10 16 N/A
12:15 pm 12:15 Sunny 35 1.4 29 -1.5 81 81 SSE 7 11 30.37 1029 10 16 N/A
12:35 pm 12:35 Sunny 35 1.6 30 -1.1 82 82 SSE 8 13 30.36 1028 10 16 N/A
12:55 pm 12:55 Sunny 36 2.2 30 -1 80 80 S 7 11 30.35 1028 10 16 N/A
1:15 pm 13:15 Sunny 37 2.5 30 -1.1 77 77 SSE 8 13 30.34 1027 10 16 N/A
1:35 pm 13:35 Sunny 37 2.5 30 -1.2 77 77 SSE 9 15 30.33 1027 10 16 N/A
1:55 pm 13:55 Sunny 37 2.6 29 -1.5 75 75 S 9 15 30.32 1027 10 16 N/A
2:15 pm 14:15 Sunny 37 2.7 30 -1 77 77 SSE 7 11 30.31 1026 10 16 N/A
2:35 pm 14:35 Sunny 37 2.8 31 -0.7 78 78 SSE 7 11 30.30 1026 10 16 N/A
2:55 pm 14:55 Sunny 38 3.2 30 -0.9 75 75 S 7 11 30.30 1026 10 16 N/A
3:15 pm 15:15 Sunny 38 3.3 30 -1 74 74 SSE 7 11 30.28 1026 10 16 N/A
3:35 pm 15:35 Sunny 37 3 31 -0.5 78 78 SSE 7 11 30.28 1025 10 16 N/A
3:55 pm 15:55 Sunny 37 2.8 31 -0.6 79 79 SSE 9 15 30.28 1025 10 16 N/A
4:15 pm 16:15 Sunny 37 2.5 31 -0.6 80 80 SSE 7 11 30.27 1025 10 16 N/A
4:35 pm 16:35 Sunny 36 2.1 31 -0.7 82 82 SSE 7 11 30.28 1025 10 16 N/A
4:55 pm 16:55 Sunny 35 1.6 31 -0.7 85 85 SSE 5 7 30.28 1025 10 16 N/A
5:15 pm 17:15 Sunny 35 1.4 30 -1.1 84 84 SSE 6 9 30.28 1025 10 16 N/A
5:35 pm 17:35 Sunny 33 0.8 30 -1.1 87 87 SSE 6 9 30.29 1026 10 16 N/A
5:55 pm 17:55 Sunny 32 undefined 29 -1.6 89 89 SSE 7 11 30.30 1026 10 16 N/A
6:15 pm 18:15 Clear 32 undefined 29 -1.8 88 88 SSE 7 11 30.30 1026 10 16 N/A
6:35 pm 18:35 Clear 32 -0.1 28 -2.1 87 87 SSE 7 11 30.30 1026 10 16 N/A
6:55 pm 18:55 Clear 30 -0.9 27 -2.6 88 88 SE 6 9 30.30 1026 10 16 N/A
7:15 pm 19:15 Clear 29 -1.6 27 -3 90 90 SE 5 7 30.31 1026 10 16 N/A
7:35 pm 19:35 Clear 28 -2.3 26 -3.5 92 92 ESE 6 9 30.32 1027 10 16 N/A
7:55 pm 19:55 Clear 28 -2.3 26 -3.3 93 93 SE 6 9 30.31 1026 10 16 N/A
8:15 pm 20:15 Clear 27 -2.8 25 -3.8 93 93 E 3 6 30.31 1027 10 16 N/A
8:35 pm 20:35 Clear 25 -3.7 24 -4.6 94 94 ESE 7 11 30.32 1027 7 11 N/A
8:55 pm 20:55 Clear 25 -4.1 23 -5 94 94 ESE 8 13 30.33 1027 7 11 N/A
9:15 pm 21:15 Clear 24 -4.3 23 -5.1 94 94 SE 6 9 30.32 1027 7 11 N/A
9:35 pm 21:35 Clear 23 -5 22 -5.7 95 95 SE 6 9 30.33 1027 7 11 N/A
9:55 pm 21:55 Mostly Cloudy with Mist and Fog 23 -4.8 22 -5.5 95 95 SE 5 7 30.32 1027 3 4 N/A
10:15 pm 22:15 Cloudy with Freezing Fog 24 -4.5 23 -5.1 96 96 SE 8 13 30.32 1027 1 1 N/A
10:35 pm 22:35 Cloudy with Freezing Fog 24 -4.5 23 -5 96 96 SE 7 11 30.31 1026 1 1 N/A
10:55 pm 22:55 Cloudy with Freezing Fog 25 -3.7 24 -4.3 96 96 SE 7 11 30.29 1026 1 1 N/A
11:15 pm 23:15 Cloudy with Freezing Fog 27 -3 26 -3.6 96 96 SSE 7 11 30.28 1026 1 1 N/A
11:35 pm 23:35 Cloudy with Mist and Fog 27 -2.6 26 -3.1 96 96 SSE 8 13 30.28 1025 1 1 N/A
11:55 pm 23:55 Cloudy with Mist and Fog 27 -2.6 26 -3.1 96 96 SSE 9 15 30.28 1025 1 1 N/A

Powered by AerisWeather